Regional Weather Roundup
Issued by NWS Little Rock, AR

Home | Current Version | Previous Version | Graphics & Text | Print | Product List | Glossary On
Versions: 1 2 3 4 5 6 7 8 9 10 11 12 13 14 15 16 17 18 19 20 21 22 23 24 25 26 27 28 29 30 31 32 33 34 35 36 37 38 39 40 41 42 43 44 45 46 47 48 49 50
000
ASUS44 KLZK 130005
RWRLZK

WEATHER ROUNDUP FOR ARKANSAS
NATIONAL WEATHER SERVICE LITTLE ROCK AR
600 PM CST FRI FEB 12 2016

NOTE: "FAIR" INDICATES FEW OR NO CLOUDS BELOW 12,000 FEET WITH NO
SIGNIFICANT WEATHER AND/OR OBSTRUCTIONS TO VISIBILITY.

ARZ001-003-010-029-130100-
NORTHWEST ARKANSAS

CITY           SKY/WX    TMP DP  RH WIND       PRES   REMARKS
FAYETTEVILLE   CLEAR     44  25  47 N8        30.38R
6HR MIN TEMP:  44; 6HR MAX TEMP:  52;

FORT SMITH     CLEAR     53  24  32 N9        30.35R
6HR MIN TEMP:  53; 6HR MAX TEMP:  63;

HARRISON       CLEAR     42  22  44 N5        30.36R
6HR MIN TEMP:  42; 6HR MAX TEMP:  50;

BENTONVILLE    CLEAR     43  21  42 N8        30.40R
6HR MIN TEMP:  43; 6HR MAX TEMP:  48;

ROGERS         CLEAR     42  24  49 N7        30.39R
6HR MIN TEMP:  42; 6HR MAX TEMP:  48;

SILOAM SPGS    PTCLDY    43  21  42 N10       30.39R
6HR MIN TEMP:  43; 6HR MAX TEMP:  52;

HIGHFILL       CLEAR     42  25  50 N8        30.38R
6HR MIN TEMP:  42; 6HR MAX TEMP:  51;

SPRINGDALE     CLEAR     43  23  45 N8        30.40R
$$

ARZ004-005-016-130100-
NORTH CENTRAL ARKANSAS

CITY           SKY/WX    TMP DP  RH WIND       PRES   REMARKS
BATESVILLE     CLEAR     50  25  37 NW6       30.34R
6HR MIN TEMP:  50; 6HR MAX TEMP:  55;

FLIPPIN        CLEAR     46  19  34 N8        30.34R
MTN HOME       CLEAR     44  22  41 N7        30.35R
6HR MIN TEMP:  44; 6HR MAX TEMP:  52;

$$

ARZ040-041-130100-
WEST CENTRAL ARKANSAS

CITY           SKY/WX    TMP DP  RH WIND       PRES   REMARKS
MENA           CLEAR     59  34  38 NW6       30.32R
MOUNT IDA      CLEAR     57  33  40 CALM      30.28R HAZE
6HR MIN TEMP:  57; 6HR MAX TEMP:  66;

$$

ARZ009-017-025-026-028-130100-
NORTHEAST ARKANSAS

CITY           SKY/WX    TMP DP  RH WIND       PRES   REMARKS
CORNING        FAIR      43  25  49 N6        30.35R
JONESBORO      CLEAR     47  24  40 N6        30.33R
6HR MIN TEMP:  45; 6HR MAX TEMP:  51;

NEWPORT        CLEAR     47  25  42 N13       30.35R
6HR MIN TEMP:  47; 6HR MAX TEMP:  56;

WALNUT RIDGE   CLEAR     45  21  39 N10       30.33S
6HR MIN TEMP:  45; 6HR MAX TEMP:  54;

BLYTHEVILLE    CLEAR     42  27  55 NE7       30.34R
6HR MIN TEMP:  42; 6HR MAX TEMP:  55;

$$

ARZ022-023-033-042-044-130100-
CENTRAL ARKANSAS

CITY           SKY/WX    TMP DP  RH WIND       PRES   REMARKS
LITTLE ROCK    PTCLDY    55  29  36 N10       30.31R
6HR MIN TEMP:  55; 6HR MAX TEMP:  64;

JACKSONVILLE   CLEAR     55  27  33 N6        30.31R
6HR MIN TEMP:  55; 6HR MAX TEMP:  63;

SEARCY         CLEAR     52  28  40 N6        30.34R
6HR MIN TEMP:  52; 6HR MAX TEMP:  61;

HOT SPRINGS    CLEAR     59  32  36 CALM      30.30R
6HR MIN TEMP:  59; 6HR MAX TEMP:  67;

RUSSELLVILLE   CLEAR     57  26  30 N7        30.31R
6HR MIN TEMP:  55; 6HR MAX TEMP:  64;

CLINTON        FAIR      52  25  35 N3        30.35R
$$

ARZ036-130100-
EAST ARKANSAS

CITY           SKY/WX    TMP DP  RH WIND       PRES   REMARKS
WEST MEMPHIS   CLEAR     45  29  53 N6        30.32R
6HR MIN TEMP:  45; 6HR MAX TEMP:  53;

$$

ARZ050-053-066-070-073-130100-
SOUTHWEST ARKANSAS

CITY           SKY/WX    TMP DP  RH WIND       PRES   REMARKS
ARKADELPHIA    FAIR      61  32  33 N8        30.30R
6HR MIN TEMP:  62; 6HR MAX TEMP:  71;

CAMDEN         CLEAR     59  32  36 CALM      30.28R
TEXARKANA      CLEAR     59  40  49 N5        30.28R
6HR MIN TEMP:  59; 6HR MAX TEMP:  70;

EL DORADO      CLEAR     58  36  43 CALM      30.27R
6HR MIN TEMP:  58; 6HR MAX TEMP:  69;

DE QUEEN       CLEAR     62  33  33 N6        30.29R
6HR MIN TEMP:  62; 6HR MAX TEMP:  72;

$$

ARZ056-057-069-130100-
SOUTHEAST ARKANSAS

CITY           SKY/WX    TMP DP  RH WIND       PRES   REMARKS
PINE BLUFF     CLEAR     50  37  61 SE3       30.31R
6HR MIN TEMP:  50; 6HR MAX TEMP:  60;

STUTTGART      CLEAR     52  34  50 NE6       30.32R
6HR MIN TEMP:  52; 6HR MAX TEMP:  57;

MONTICELLO     PTCLDY    55  34  45 NE6       30.29R
6HR MIN TEMP:  55; 6HR MAX TEMP:  65;


$$





USA.gov is the U.S. government's official web portal to all federal, state and local government web resources and services.